Home > Weather > Bandar-Abbas > Past weeks

Flag for Iran Past Weather in Bandar-Abbas, Iran — Yesterday and Last 2 Weeks

Now
97 °F

Scattered clouds.


Feels Like: 118 °F
Forecast: 87 / 99 °F
Wind: 12 mph from Southeast

Location: Bandarabbass

Current Time: Jul 24, 2016 at 11:32:02 AM

Latest Report: Jul 24, 2016 at 11:00 AM


Visibility: 3 mi

Pressure: 29.53 "Hg

Humidity: 60%

Dew Point: 81 °F

Location of Bandar-AbbasLocation

Past Weather in Bandar-Abbas — Graph

°F

Bandar-Abbas Temperature Yesterday

Maximum temperature yesterday: 100 °F (at 3:30 PM)
Minimum temperature yesterday: 88 °F (at 7:00 AM)
Average temperature yesterday: 95 °F

High & Low Weather Summary for the Past Weeks

 TemperatureHumidityPressure
High108 °F (Jul 9, 6:00 PM)94% (Jul 21, 7:00 AM)29.59 "Hg (Jul 21, 7:00 AM)
Low84 °F (Jul 11, 5:30 AM)29% (Jul 11, 8:00 PM)29.30 "Hg (Jul 10, 5:30 PM)
Average95 °F69%29.44 "Hg
* Reported Jul 9 10:30 AM — Jul 24 10:30 AM, Bandar-Abbas, Weather by CustomWeather, © 2016

Note: Actual official high and low records may vary slightly from our data, if they occured in-between our weather recording intervals... More about our weather records

Advertising

Bandar-Abbas Weather History for the Previous 24 Hours

Scroll right to see more
 ConditionsComfort  
Time TempWeatherWind HumidityBarometerVisibility
10:30 AM
Sun, Jul 24
95 °FSandstorm.16 mph63%29.53 "Hg3 mi
10:00 AM95 °FSandstorm.16 mph63%29.53 "Hg2 mi
9:30 AM93 °FSandstorm.16 mph71%29.53 "Hg2 mi
9:00 AM93 °FScattered clouds.14 mph71%29.53 "Hg2 mi
8:30 AM93 °FSandstorm.16 mph71%29.53 "Hg2 mi
8:00 AM91 °FSandstorm.16 mph75%29.50 "Hg2 mi
7:30 AM91 °FPassing clouds.12 mph75%29.50 "Hg2 mi
7:00 AM91 °FPassing clouds.14 mph75%29.47 "Hg2 mi
6:30 AM90 °FPassing clouds.12 mph79%29.47 "Hg2 mi
5:30 AM90 °FPassing clouds.12 mph79%29.45 "Hg2 mi
4:30 AM91 °FHaze.12 mph75%29.45 "Hg2 mi
3:30 AM91 °FHaze.9 mph80%29.45 "Hg2 mi
2:30 AM91 °FFog.9 mph80%29.45 "Hg2 mi
2:00 AM91 °FFog.9 mph80%29.45 "Hg2 mi
1:30 AM91 °FFog.5 mph80%29.45 "Hg2 mi
1:00 AM91 °FFog.7 mph80%29.42 "Hg2 mi
12:30 AM91 °FFog.5 mph80%29.45 "Hg2 mi
12:00 AM91 °FFog.5 mph80%29.42 "Hg2 mi
11:30 PM
Sat, Jul 23
91 °FFog.5 mph80%29.42 "Hg2 mi
11:00 PM91 °FFog.12 mph84%29.42 "Hg2 mi
10:30 PM91 °FFog.9 mph84%29.39 "Hg2 mi
10:00 PM93 °FFog.12 mph80%29.39 "Hg2 mi
9:30 PM93 °FHaze.5 mph80%29.39 "Hg2 mi
9:00 PM93 °FHaze.9 mph80%29.36 "Hg2 mi
8:30 PM93 °FFog.9 mph80%29.36 "Hg2 mi
8:00 PM93 °FHaze.12 mph80%29.33 "Hg2 mi
7:30 PM95 °FHaze.14 mph71%29.33 "Hg2 mi
7:00 PM97 °FHaze.12 mph60%29.33 "Hg2 mi
6:30 PM97 °FHaze.12 mph63%29.33 "Hg2 mi
6:00 PM99 °FHaze.14 mph60%29.33 "Hg2 mi
5:30 PM100 °FSandstorm.16 mph53%29.33 "Hg2 mi
5:00 PM100 °FHaze.14 mph60%29.36 "Hg2 mi
4:30 PM100 °FSandstorm.16 mph57%29.36 "Hg2 mi
4:00 PM100 °FSandstorm.16 mph64%29.36 "Hg2 mi
3:30 PM100 °FHaze.14 mph64%29.39 "Hg2 mi
3:00 PM99 °FHaze.14 mph67%29.36 "Hg2 mi
2:30 PM99 °FHaze.14 mph64%29.39 "Hg2 mi
2:00 PM99 °FSandstorm.16 mph67%29.39 "Hg2 mi
1:30 PM99 °FSandstorm.16 mph64%29.39 "Hg2 mi
1:00 PM99 °FSandstorm.16 mph67%29.39 "Hg2 mi
12:30 PM97 °FSandstorm.18 mph71%29.42 "Hg2 mi
12:00 PM99 °FSandstorm.24 mph67%29.42 "Hg2 mi
11:30 AM97 °FSandstorm.18 mph71%29.42 "Hg3 mi
11:00 AM97 °FHaze.14 mph71%29.42 "Hg3 mi
Weather by CustomWeather, © 2016

See weather overviewHow to use our weather pages